Wind_Speed
9 10 8 9 8 7 8 9 9 10 10 12 12 13 15 16 16 15 17 18 19 20 21 21 21 21 20 21 21 21 21 21 22 23 23 23 24 25 25 24 24 24 25 25
10 9 8 9 8 7 9 10 9 9 9 12 13 13 14 15 16 17 18 20 21 20 21 21 21 21 20 21 20 20 21 22 22 23 23 24 25 24 24 23 23 24 25 25
11 9 9 10 9 8 9 8 9 11 10 12 12 12 13 15 17 18 20 21 21 21 21 21 21 21 21 21 21 21 21 22 23 23 23 23 24 24 24 23 23 24 25 25
10 11 10 9 9 8 9 9 11 12 12 12 13 15 15 16 17 18 20 21 22 21 21 21 21 21 21 22 22 21 22 23 23 23 23 23 23 23 23 23 23 24 24 24
9 10 11 10 9 10 10 10 12 13 13 12 12 15 17 18 18 19 20 22 21 21 21 21 20 20 21 21 22 22 22 22 22 22 22 22 22 22 22 22 22 23 24 24
9 10 11 10 10 11 10 11 11 12 13 14 13 15 18 17 17 20 21 21 21 20 20 21 20 20 20 20 21 21 20 21 21 21 22 22 22 22 22 22 22 23 23 23
8 10 9 10 11 11 11 11 12 14 14 13 15 16 15 15 18 20 21 20 21 20 20 21 21 21 20 20 20 19 19 20 21 21 20 22 22 22 21 21 21 21 21 21
10 11 10 12 14 14 14 13 14 15 13 14 16 18 18 15 18 21 21 21 20 20 20 20 20 19 19 19 19 19 19 20 20 20 20 21 20 20 21 21 20 20 20 20
12 12 11 14 14 13 13 13 13 14 14 14 14 16 19 17 18 20 20 20 20 20 20 20 20 18 18 18 18 19 19 20 20 20 19 19 19 19 20 19 19 19 19 19
14 14 13 14 14 13 13 12 14 14 15 14 13 16 18 20 19 18 19 20 20 21 20 19 18 18 18 18 18 19 19 20 19 18 18 18 18 19 19 18 18 19 18 19
16 16 15 14 14 13 14 14 15 16 15 16 16 17 19 18 20 21 21 21 20 20 19 19 18 18 18 18 18 18 18 18 17 16 17 17 17 17 17 17 18 18 18 18
18 18 17 16 15 16 16 16 15 16 16 16 17 19 20 21 21 21 21 21 20 19 20 19 18 18 18 18 18 17 16 16 16 16 16 16 17 17 16 17 18 18 17 17
19 19 17 16 16 16 16 15 15 16 17 16 16 19 20 21 20 20 21 20 20 20 20 19 19 18 18 18 17 17 16 16 16 16 16 16 16 16 16 16 17 17 17 17
20 21 20 19 18 17 18 17 16 16 17 17 17 19 21 21 21 22 21 20 21 21 20 19 18 18 18 17 17 15 15 15 15 15 15 15 15 15 15 16 16 17 17 17
23 23 23 22 20 20 20 18 18 18 18 18 18 19 21 21 20 21 21 21 21 20 19 19 18 17 17 17 17 16 15 15 15 15 15 15 15 15 15 15 16 17 17 17
24 24 24 23 22 22 22 20 20 20 19 19 19 20 22 21 21 21 22 22 21 20 20 19 18 17 17 17 16 16 15 15 15 15 15 15 14 14 15 15 16 16 16 16
25 25 25 24 23 23 23 22 22 21 21 21 21 22 23 23 22 22 22 22 21 20 19 18 17 16 17 16 16 16 15 14 14 14 14 14 14 14 14 15 15 15 16 16
26 26 26 25 25 25 23 22 23 23 23 23 23 23 24 24 22 22 21 22 22 20 19 18 17 16 16 16 15 15 14 13 13 13 14 13 13 13 14 14 15 16 16 17
26 26 26 26 26 25 24 24 24 24 24 24 24 25 26 25 24 23 22 22 22 20 19 19 17 16 16 15 15 14 13 13 13 13 13 13 13 13 14 14 15 15 16 16
27 27 28 27 27 27 26 26 26 26 26 26 27 27 27 25 24 23 22 21 20 19 19 18 18 17 16 15 14 14 13 13 13 12 12 13 13 13 14 15 15 16 16 16
27 27 27 28 28 27 27 28 27 27 28 29 28 28 27 26 24 24 23 21 20 20 20 19 19 19 18 17 15 14 14 13 13 13 13 14 13 13 14 15 15 15 15 16
27 27 27 27 28 27 28 28 28 29 29 29 29 29 28 26 25 24 23 23 22 22 21 20 20 19 18 18 17 16 15 14 14 14 14 14 15 14 15 15 15 15 15 16
28 26 27 29 29 29 29 29 30 30 30 29 30 29 28 27 26 26 24 23 23 23 22 21 20 19 19 19 18 17 16 16 16 16 15 16 16 15 15 15 15 15 16 16
29 28 29 30 29 29 29 30 31 31 30 30 29 29 28 27 27 26 25 24 23 23 23 22 21 20 20 20 19 18 18 18 18 18 17 17 16 16 16 16 16 16 16 16
29 30 31 31 30 31 31 31 32 32 31 32 31 30 29 29 28 28 27 26 25 24 23 23 22 21 20 20 19 19 19 19 18 18 18 18 17 17 17 17 17 16 16 17
31 31 32 32 32 33 33 32 31 31 31 31 31 29 29 30 29 29 28 27 26 25 24 23 22 21 21 20 20 20 19 19 19 19 20 19 19 18 18 18 17 16 16 17
Wind_Direction
222 226 228 233 239 242 243 244 249 245 255 267 277 281 285 292 297 303 304 306 306 306 304 305 307 307 307 308 305 304 303 303 305 306 306 305 305 305 304 304 304 304 304 304
227 231 229 225 229 241 243 246 255 270 260 265 275 281 284 286 293 301 304 306 307 307 307 307 308 309 310 311 310 306 306 306 307 308 306 306 307 307 305 305 305 306 305 305
221 227 235 231 237 244 252 256 258 259 260 272 284 281 281 285 287 295 302 303 308 309 308 308 308 309 311 310 310 310 308 308 308 308 307 306 306 306 307 306 306 306 307 307
224 223 231 233 244 247 256 254 261 269 272 282 283 278 279 283 292 296 303 309 310 311 309 309 310 311 310 310 310 310 309 309 308 307 307 307 308 308 308 307 308 309 311 310
238 227 232 239 244 249 256 264 270 275 276 275 272 278 279 285 293 298 308 311 312 313 313 312 312 313 311 310 312 312 312 310 308 308 308 308 309 309 309 310 310 311 312 311
241 242 236 244 247 254 262 269 273 276 275 269 268 270 276 287 296 305 311 311 312 313 313 313 314 313 312 312 314 315 314 314 314 311 310 309 309 310 310 311 311 310 312 314
251 248 246 249 256 258 261 270 274 270 271 278 288 280 275 288 294 300 305 309 311 313 312 312 315 316 315 315 316 316 318 317 316 314 313 312 311 311 311 313 313 314 316 318
248 249 252 254 253 258 255 258 265 265 271 283 291 290 284 289 293 298 303 307 311 315 314 312 314 316 316 317 319 320 320 320 319 319 318 317 316 315 314 314 315 316 319 322
248 249 250 258 257 257 254 256 263 271 279 281 283 287 285 285 291 298 304 309 315 314 317 317 316 316 317 319 321 321 322 323 322 321 321 322 322 321 319 319 318 320 321 322
245 250 245 249 258 269 273 270 272 274 282 280 278 281 283 286 293 301 303 306 311 315 318 319 319 320 321 321 321 321 322 323 323 324 324 325 325 325 325 326 324 323 323 323
244 251 252 255 256 258 267 270 271 272 273 279 279 280 287 293 296 297 300 304 309 314 316 317 318 320 319 319 318 319 321 323 325 327 328 328 329 330 330 330 329 328 328 326
246 249 253 252 257 259 262 271 268 271 273 273 277 284 289 292 292 294 299 303 307 310 312 314 316 317 317 318 318 319 322 324 326 328 330 332 332 331 331 333 333 331 330 333
252 258 261 261 262 261 262 266 267 271 272 277 279 285 289 292 292 296 299 301 305 308 309 310 313 314 316 318 318 320 323 325 327 327 328 329 330 331 333 336 339 336 335 336
257 255 256 255 256 261 265 266 267 267 269 274 278 284 289 292 295 297 298 300 302 305 306 306 310 312 313 316 317 319 323 325 328 330 328 328 330 335 336 338 340 341 339 338
257 257 258 259 261 264 268 267 265 264 268 273 275 279 283 287 292 296 298 299 301 302 304 304 306 308 310 313 314 316 319 325 329 331 330 329 331 334 338 339 340 341 342 342
261 262 262 263 262 262 262 263 264 264 267 270 271 274 277 282 286 289 294 296 298 300 302 302 301 305 308 310 310 312 314 320 325 328 331 333 335 336 340 342 344 346 347 347
260 264 264 265 264 262 261 262 264 267 269 271 271 271 275 278 282 285 287 291 294 298 299 299 298 301 305 307 309 310 312 316 320 326 331 334 337 340 342 346 348 347 347 347
260 263 265 266 265 264 266 264 263 264 266 267 269 272 277 279 282 285 287 288 290 294 295 294 293 295 299 301 304 306 309 313 317 323 327 331 335 339 342 346 348 349 350 348
260 261 263 263 264 266 266 264 262 262 266 269 270 271 274 277 279 281 282 284 287 290 291 292 291 292 294 297 300 302 305 310 313 319 325 330 334 337 338 341 342 344 344 346
260 263 262 263 264 264 264 262 261 263 265 268 269 272 275 276 278 278 278 280 281 284 288 289 291 293 292 293 295 297 299 304 309 314 321 326 329 331 333 336 338 338 341 344
258 261 263 263 264 263 264 265 264 263 264 269 271 273 274 276 276 276 276 276 279 283 285 287 288 289 289 289 288 290 294 298 301 306 315 319 320 323 327 330 333 336 339 341
259 260 261 263 262 259 262 262 261 263 266 268 269 271 273 273 272 272 273 273 276 278 281 284 286 285 286 285 284 285 287 290 294 300 307 314 315 317 322 326 330 333 335 336
257 258 260 260 259 261 262 261 261 263 264 264 266 269 271 271 271 269 270 272 273 275 277 279 282 282 282 281 281 281 283 285 288 294 300 307 311 314 317 318 321 325 328 331
256 257 258 258 258 259 260 260 260 262 264 265 266 267 267 268 268 268 267 269 272 273 273 275 277 279 280 279 277 278 280 282 285 289 295 302 305 308 311 313 314 319 323 326
257 258 259 259 260 262 263 260 260 262 263 264 264 264 264 266 267 268 269 268 269 269 269 271 273 275 276 276 277 277 278 280 282 287 290 297 300 303 306 307 310 313 317 320
258 259 260 260 260 262 263 263 261 260 260 262 263 263 263 264 265 266 267 267 266 266 266 267 269 271 272 273 275 277 276 277 280 284 288 291 294 297 300 302 304 307 311 315
Height
5847 5850 5853 5855 5856 5858 5858 5859 5860 5861 5861 5861 5859 5860 5859 5857 5855 5854 5853 5851 5849 5848 5846 5844 5842 5839 5837 5835 5833 5831 5829 5827 5825 5823 5820 5818 5815 5813 5810 5807 5805 5802 5800 5797
5847 5850 5852 5853 5854 5855 5856 5857 5858 5858 5859 5859 5859 5858 5857 5855 5853 5852 5851 5848 5847 5845 5842 5840 5838 5836 5834 5831 5829 5827 5825 5823 5820 5818 5815 5813 5811 5808 5805 5802 5800 5797 5794 5791
5848 5851 5851 5852 5853 5854 5854 5855 5855 5856 5857 5857 5856 5856 5854 5852 5851 5850 5848 5846 5843 5841 5839 5837 5834 5832 5830 5828 5825 5823 5821 5818 5816 5813 5810 5808 5805 5803 5800 5797 5795 5792 5788 5786
5847 5849 5849 5850 5851 5852 5853 5855 5854 5853 5854 5855 5855 5852 5851 5849 5848 5846 5845 5843 5840 5837 5835 5833 5831 5829 5826 5824 5821 5819 5816 5814 5811 5808 5805 5803 5800 5798 5795 5792 5789 5786 5783 5780
5845 5847 5848 5849 5851 5851 5851 5852 5851 5851 5851 5852 5852 5850 5847 5845 5844 5843 5841 5840 5837 5835 5832 5830 5828 5825 5823 5820 5817 5815 5812 5809 5806 5804 5801 5798 5796 5793 5790 5787 5785 5782 5779 5775
5844 5845 5847 5848 5849 5849 5850 5850 5850 5849 5849 5849 5848 5847 5845 5843 5842 5840 5839 5838 5835 5832 5829 5826 5823 5821 5819 5816 5814 5811 5808 5805 5802 5800 5797 5794 5791 5789 5786 5783 5780 5777 5774 5771
5843 5844 5845 5846 5847 5847 5848 5849 5848 5848 5847 5846 5845 5844 5843 5841 5840 5839 5837 5835 5832 5829 5827 5823 5819 5818 5816 5813 5810 5807 5804 5802 5799 5796 5793 5790 5787 5784 5782 5779 5776 5773 5770 5767
5842 5843 5844 5844 5845 5845 5845 5846 5846 5846 5845 5845 5844 5841 5839 5838 5837 5836 5835 5831 5829 5826 5824 5820 5817 5815 5812 5810 5806 5804 5801 5798 5795 5792 5789 5786 5783 5781 5778 5775 5772 5769 5767 5764
5839 5841 5842 5842 5842 5842 5843 5842 5843 5843 5841 5841 5841 5839 5836 5834 5834 5833 5831 5829 5826 5824 5821 5818 5815 5812 5809 5806 5803 5800 5798 5795 5791 5788 5786 5783 5780 5777 5774 5771 5768 5766 5763 5761
5836 5837 5839 5839 5840 5840 5840 5840 5840 5839 5838 5838 5838 5836 5833 5830 5830 5829 5827 5826 5824 5821 5818 5815 5812 5809 5806 5804 5801 5798 5795 5792 5788 5785 5783 5780 5777 5774 5771 5768 5765 5763 5760 5758
5833 5834 5836 5836 5837 5838 5838 5837 5837 5836 5835 5835 5834 5834 5828 5827 5826 5825 5824 5822 5820 5817 5815 5812 5809 5806 5804 5801 5798 5795 5792 5789 5786 5783 5780 5777 5775 5772 5769 5766 5763 5760 5758 5755
5829 5830 5830 5832 5833 5833 5833 5833 5833 5833 5832 5831 5831 5832 5827 5825 5824 5822 5820 5818 5816 5814 5812 5809 5806 5804 5801 5798 5795 5793 5790 5787 5784 5781 5778 5776 5773 5770 5767 5764 5761 5758 5755 5752
5825 5826 5827 5828 5831 5829 5829 5828 5829 5829 5829 5828 5828 5828 5824 5821 5820 5818 5816 5814 5812 5811 5808 5806 5803 5801 5798 5796 5793 5790 5787 5785 5782 5780 5777 5774 5771 5768 5765 5762 5760 5757 5754 5751
5820 5821 5823 5824 5824 5823 5823 5824 5824 5824 5824 5824 5824 5822 5820 5817 5816 5814 5812 5810 5809 5807 5805 5803 5801 5798 5796 5793 5791 5788 5785 5783 5780 5778 5775 5772 5770 5767 5764 5761 5758 5755 5752 5749
5815 5816 5816 5817 5818 5818 5819 5819 5820 5819 5819 5820 5820 5818 5816 5814 5813 5811 5809 5806 5805 5803 5801 5799 5797 5795 5793 5791 5788 5786 5783 5781 5778 5776 5773 5771 5768 5765 5762 5760 5757 5754 5750 5747
5808 5810 5810 5811 5813 5813 5814 5814 5814 5814 5815 5814 5814 5813 5810 5809 5808 5807 5805 5803 5801 5800 5798 5796 5794 5792 5790 5788 5786 5783 5781 5779 5776 5774 5772 5769 5766 5764 5761 5758 5755 5752 5749 5746
5802 5803 5804 5805 5806 5806 5807 5809 5809 5809 5808 5808 5807 5807 5805 5804 5803 5802 5800 5798 5797 5796 5794 5792 5790 5789 5787 5785 5783 5781 5779 5777 5775 5772 5770 5767 5765 5762 5760 5757 5754 5752 5748 5745
5795 5796 5796 5797 5799 5799 5803 5803 5803 5803 5802 5802 5801 5801 5800 5798 5798 5796 5795 5794 5792 5791 5789 5788 5786 5785 5784 5782 5780 5778 5776 5775 5773 5771 5768 5766 5764 5761 5759 5756 5754 5751 5748 5744
5788 5789 5790 5791 5791 5792 5795 5795 5795 5796 5795 5795 5794 5794 5793 5793 5792 5791 5790 5789 5788 5787 5785 5784 5782 5781 5780 5779 5777 5776 5774 5772 5770 5769 5767 5764 5762 5760 5758 5755 5753 5750 5747 5744
5780 5781 5783 5784 5784 5786 5787 5787 5788 5790 5788 5787 5787 5787 5787 5787 5786 5785 5785 5784 5783 5782 5781 5780 5779 5778 5777 5775 5774 5773 5772 5770 5768 5767 5765 5763 5761 5759 5756 5754 5752 5749 5746 5743
5773 5774 5774 5775 5776 5778 5778 5779 5781 5782 5781 5780 5780 5780 5780 5780 5780 5779 5779 5778 5777 5777 5777 5776 5775 5774 5773 5772 5771 5770 5769 5767 5766 5765 5763 5761 5759 5757 5755 5753 5750 5747 5744 5742
5766 5767 5768 5768 5769 5771 5770 5771 5772 5772 5772 5772 5772 5773 5773 5773 5773 5773 5773 5772 5772 5772 5772 5771 5770 5769 5768 5768 5767 5766 5765 5764 5763 5762 5761 5759 5757 5755 5753 5750 5748 5745 5743 5740
5757 5759 5760 5761 5762 5761 5762 5763 5763 5763 5763 5764 5765 5765 5766 5766 5766 5767 5767 5767 5767 5766 5766 5766 5765 5764 5763 5763 5762 5762 5761 5761 5760 5759 5757 5755 5754 5752 5750 5748 5745 5743 5741 5738
5749 5750 5751 5751 5752 5753 5753 5753 5753 5754 5755 5756 5757 5757 5758 5758 5759 5759 5760 5760 5760 5760 5760 5760 5759 5759 5758 5758 5758 5757 5757 5756 5755 5754 5753 5752 5750 5749 5747 5745 5742 5740 5738 5736
5741 5742 5742 5742 5744 5744 5743 5744 5744 5745 5747 5747 5748 5749 5750 5750 5751 5751 5752 5752 5753 5753 5753 5753 5753 5753 5753 5753 5752 5752 5751 5751 5751 5749 5748 5747 5746 5745 5743 5741 5739 5737 5735 5732
5733 5733 5733 5733 5733 5734 5734 5735 5735 5736 5737 5738 5740 5741 5742 5742 5743 5743 5744 5744 5745 5745 5746 5746 5747 5747 5747 5747 5747 5746 5746 5746 5745 5745 5744 5743 5742 5740 5739 5737 5736 5733 5731 5729